Weather History for Bogalusa, LA

Change the Weather History Date:

Monday, January 21, 2013

  Actual Average Record
Temperature  
Mean Temperature 48 °F -  
Max Temperature 65 °F 57 °F 65 °F (2013)
Min Temperature 32 °F 36 °F 30 °F (2014)
Degree Days  
Heating Degree Days 16    
Moisture  
Dew Point 39 °F    
Average Humidity 77    
Maximum Humidity 100    
Minimum Humidity 36    
Precipitation  
Precipitation 0.00 in - - ()
Sea Level Pressure  
Sea Level Pressure 30.20 in    
Wind  
Wind Speed 2 mph (NNE)    
Max Wind Speed 10 mph    
Max Gust Speed 16 mph    
Visibility 10 miles    
Events      
Averages and records for this station are not official NWS values.
T = Trace of Precipitation, MM = Missing Value Source: NWS Daily Summary

Daily Weather History Graph

Daily Weather History Graph

Search for Another Location

Airport:

Trip Planner

Search our weather history database for the weather conditions in past years. The results will help you decide how hot, cold, wet, or windy it might be!

Date:

Astronomy

Jan. 21, 2013 Rise Set
Actual Time 6:56 AM CST 5:25 PM CST
Civil Twilight 6:30 AM CST 5:51 PM CST
Nautical Twilight 6:01 AM CST 6:21 PM CST
Astronomical Twilight 5:32 AM CST 6:49 PM CST
Moon 1:07 PM CST (1/21) 2:23 AM CST (1/21)
Length of Visible Light 11h 21m
Length of Day
10h 29m
Waxing Gibbous, 75% of the Moon is Illuminated
Jan 21
Waxing Gibbous
Jan 26
Full
Feb 3
Last Quarter
Feb 10
New
Feb 17
First Quarter

Hourly Weather History & Observations

Time (CST) Temp. Windchill Dew Point Humidity Pressure Visibility Wind Dir Wind Speed Gust Speed Precip Events Conditions
12:15 AM 38.3 °F - 38.3 °F 100% 30.18 in 10.0 mi Calm Calm - N/A   Unknown
12:35 AM 39.2 °F - 39.2 °F 100% 30.16 in 10.0 mi Calm Calm - N/A   Unknown
12:55 AM 37.0 °F - 37.0 °F 100% 30.17 in 10.0 mi Calm Calm - N/A   Unknown
1:15 AM 37.4 °F - 37.4 °F 100% 30.16 in 10.0 mi Calm Calm - N/A   Unknown
1:35 AM 37.0 °F - 37.0 °F 100% 30.16 in 10.0 mi Calm Calm - N/A   Unknown
1:55 AM 37.0 °F - 37.0 °F 100% 30.16 in 10.0 mi Calm Calm - N/A   Unknown
2:15 AM 36.7 °F - 36.7 °F 100% 30.16 in 10.0 mi Calm Calm - N/A   Unknown
2:35 AM 37.0 °F - 37.0 °F 100% 30.16 in 10.0 mi Calm Calm - N/A   Unknown
2:55 AM 36.5 °F - 36.5 °F 100% 30.16 in 10.0 mi Calm Calm - N/A   Unknown
3:15 AM 36.1 °F - 36.1 °F 100% 30.16 in 10.0 mi Calm Calm - N/A   Unknown
3:35 AM 36.0 °F - 36.0 °F 100% 30.16 in 10.0 mi Calm Calm - N/A   Unknown
3:55 AM 35.8 °F - 35.8 °F 100% 30.17 in 10.0 mi Calm Calm - N/A   Unknown
4:15 AM 36.5 °F - 36.5 °F 100% 30.17 in 10.0 mi Calm Calm - N/A   Unknown
4:35 AM 35.8 °F - 35.8 °F 100% 30.18 in 10.0 mi Calm Calm - N/A   Unknown
4:55 AM 35.2 °F - 35.2 °F 100% 30.17 in 10.0 mi Calm Calm - N/A   Unknown
5:15 AM 34.3 °F - 34.3 °F 100% 30.18 in 10.0 mi Calm Calm - N/A   Unknown
5:35 AM 34.7 °F - 34.7 °F 100% 30.18 in 10.0 mi Calm Calm - N/A   Unknown
5:55 AM 34.0 °F - 34.0 °F 100% 30.18 in 10.0 mi Calm Calm - N/A   Unknown
6:15 AM 33.8 °F - 33.8 °F 100% 30.19 in 10.0 mi Calm Calm - N/A   Unknown
6:35 AM 33.1 °F - 33.1 °F 100% 30.19 in 10.0 mi Calm Calm - N/A   Unknown
6:55 AM 32.9 °F 29.8 °F 32.9 °F 100% 30.19 in 10.0 mi North 3.5 mph - N/A   Unknown
7:15 AM 33.4 °F - 33.4 °F 100% 30.21 in 10.0 mi Calm Calm - N/A   Unknown
7:35 AM 34.5 °F - 34.5 °F 100% 30.21 in 10.0 mi Calm Calm - N/A   Unknown
7:55 AM 35.2 °F - 35.2 °F 100% 30.22 in 10.0 mi Calm Calm - N/A   Unknown
8:15 AM 37.9 °F - 37.9 °F 100% 30.23 in 10.0 mi Calm Calm - N/A   Unknown
8:35 AM 40.5 °F - 40.5 °F 100% 30.23 in 10.0 mi Calm Calm - N/A   Unknown
8:55 AM 43.0 °F - 40.1 °F 90% 30.24 in 10.0 mi Calm Calm - N/A   Unknown
9:15 AM 46.0 °F - 39.4 °F 78% 30.24 in 10.0 mi Calm Calm - N/A   Unknown
9:35 AM 49.5 °F - 41.5 °F 74% 30.24 in 10.0 mi Calm Calm - N/A   Unknown
9:55 AM 53.2 °F - 41.5 °F 65% 30.25 in 10.0 mi Calm Calm - N/A   Unknown
10:15 AM 56.8 °F - 42.3 °F 58% 30.24 in 10.0 mi NNE 4.6 mph - N/A   Unknown
10:35 AM 59.2 °F - 41.2 °F 51% 30.24 in 10.0 mi NNE 4.6 mph - N/A   Unknown
10:55 AM 60.8 °F - 40.3 °F 47% 30.24 in 10.0 mi North 10.4 mph - N/A   Unknown
11:15 AM 62.2 °F - 40.1 °F 44% 30.23 in 10.0 mi NNE 9.2 mph - N/A   Unknown
11:35 AM 63.0 °F - 40.1 °F 43% 30.22 in 10.0 mi NNE 4.6 mph - N/A   Unknown
11:55 AM 63.5 °F - 40.3 °F 43% 30.21 in 10.0 mi NNE 5.8 mph - N/A   Unknown
12:15 PM 64.4 °F - 40.5 °F 41% 30.20 in 10.0 mi NE 5.8 mph - N/A   Unknown
12:35 PM 64.4 °F - 39.7 °F 40% 30.19 in 10.0 mi NNE 10.4 mph - N/A   Unknown
12:55 PM 64.9 °F - 40.1 °F 40% 30.19 in 10.0 mi North 9.2 mph 16.1 mph N/A   Unknown
1:15 PM 64.9 °F - 38.5 °F 38% 30.18 in 10.0 mi NE 9.2 mph - N/A   Unknown
1:35 PM 65.3 °F - 39.0 °F 38% 30.18 in 10.0 mi ENE 10.4 mph - N/A   Unknown
1:55 PM 65.3 °F - 38.7 °F 38% 30.18 in 10.0 mi North 6.9 mph - N/A   Clear
2:15 PM 65.1 °F - 37.9 °F 37% 30.18 in 10.0 mi NNE 8.1 mph - N/A   Clear
2:35 PM 65.5 °F - 38.1 °F 36% 30.18 in 10.0 mi North 4.6 mph - N/A   Clear
2:55 PM 65.3 °F - 38.5 °F 37% 30.18 in 10.0 mi North 3.5 mph - N/A   Clear
3:15 PM 65.3 °F - 38.8 °F 38% 30.18 in 10.0 mi NNE 5.8 mph - N/A   Clear
3:35 PM 64.4 °F - 38.7 °F 39% 30.18 in 10.0 mi North 8.1 mph - N/A   Clear
3:55 PM 64.8 °F - 39.0 °F 39% 30.18 in 10.0 mi North 5.8 mph - N/A   Clear
4:15 PM 64.6 °F - 38.7 °F 38% 30.19 in 10.0 mi North 8.1 mph - N/A   Clear
4:35 PM 63.1 °F - 40.3 °F 43% 30.19 in 10.0 mi North 8.1 mph - N/A   Unknown
4:55 PM 61.9 °F - 41.2 °F 47% 30.19 in 10.0 mi North 4.6 mph - N/A   Unknown
5:15 PM 58.8 °F - 41.9 °F 53% 30.19 in 10.0 mi North 5.8 mph - N/A   Unknown
5:35 PM 57.2 °F - 41.9 °F 57% 30.20 in 10.0 mi North 5.8 mph - N/A   Unknown
5:55 PM 55.4 °F - 42.1 °F 61% 30.20 in 10.0 mi North 4.6 mph - N/A   Unknown
6:15 PM 54.3 °F - 43.0 °F 66% 30.21 in 10.0 mi North 3.5 mph - N/A   Unknown
6:35 PM 53.2 °F - 42.8 °F 68% 30.21 in 10.0 mi North 5.8 mph - N/A   Unknown
6:55 PM 52.9 °F - 42.8 °F 69% 30.22 in 10.0 mi North 6.9 mph - N/A   Unknown
7:15 PM 52.0 °F - 42.8 °F 71% 30.22 in 10.0 mi North 5.8 mph - N/A   Unknown
7:35 PM 52.7 °F - 42.4 °F 68% 30.22 in 10.0 mi NNE 4.6 mph - N/A   Unknown
8:15 PM 50.2 °F - 43.0 °F 76% 30.23 in 10.0 mi Calm Calm - N/A   Unknown
8:35 PM 48.4 °F - 43.0 °F 82% 30.23 in 10.0 mi Calm Calm - N/A   Unknown
8:55 PM 48.6 °F - 43.0 °F 81% 30.23 in 10.0 mi Calm Calm - N/A   Unknown
9:15 PM 46.6 °F - 46.6 °F 100% 30.23 in 10.0 mi North 4.6 mph - N/A   Unknown
9:35 PM 46.9 °F - 46.9 °F 100% 30.23 in 10.0 mi North 4.6 mph - N/A   Unknown
9:55 PM 45.9 °F - 45.9 °F 100% 30.23 in 10.0 mi Calm Calm - N/A   Clear
10:15 PM 44.6 °F 43.1 °F 44.6 °F 100% 30.23 in 10.0 mi North 3.5 mph - N/A   Clear
10:35 PM 45.0 °F - 45.0 °F 100% 30.24 in 10.0 mi Calm Calm - N/A   Unknown
10:55 PM 44.8 °F - 44.8 °F 100% 30.24 in 10.0 mi Calm Calm - N/A   Unknown
11:15 PM 43.7 °F - 43.7 °F 100% 30.24 in 10.0 mi Calm Calm - N/A   Unknown
11:35 PM 41.7 °F 38.8 °F 41.7 °F 100% 30.24 in 10.0 mi North 4.6 mph - N/A   Unknown
11:55 PM 41.7 °F - 41.7 °F 100% 30.24 in 10.0 mi Calm Calm - N/A   Unknown